#timestamp,LO_Frequency,Hit,StdDev 
1547352015.8,286047000.7,N
1547352035.7,286047000.4,N
1547352055.5,286047000.5,N
1547352075.3,286047000.5,N
1547352095.2,286047004.4,N
1547352115.0,286047001.8,N
1547352115.9,286047001.8,N
1547352135.8,286047002.0,N
1547352155.6,286047001.5,N
1547352175.4,286047004.0,N
1547352195.3,286047004.4,N
1547352215.1,286047004.1,N
1547352235.8,286047004.3,N
1547352255.7,286047003.6,N
1547352275.5,286047005.8,Y
1547352295.4,286047003.7,P
1547352315.2,286047003.4,P
1547352335.0,286047003.7,P
1547352335.9,286047003.7,Y
1547352355.8,286046998.3,P
1547352375.6,286046996.9,N
1547352395.5,286046998.0,N
1547352415.3,286046997.2,N
1547352435.1,286046996.8,N
1547352455.9,286046995.4,N
1547352475.7,286046997.8,N
1547352495.5,286046995.0,N
1547352515.4,286046995.5,N
1547352535.2,286046997.2,N
1547352555.0,286046999.6,N
1547352556.0,286046999.6,N
1547352575.8,286046997.0,N
1547352595.6,286046995.9,N
1547352615.5,286046993.4,Y
1547352635.3,286046997.8,P
1547352655.1,286046997.0,P
1547352675.9,286046997.1,P
1547352695.7,286046997.7,Y
1547352715.6,286047000.5,P
1547352735.4,286047000.1,N
1547352755.2,286047000.2,N
1547352775.1,286047000.3,N
1547352776.0,286047000.3,N
1547352795.8,286046998.3,N
1547352815.6,286047001.1,N
1547352835.5,286047000.5,N
1547352855.3,286047002.4,N
1547352875.2,286047000.1,N
1547352895.9,286047000.0,N
1547352915.7,286047000.6,N
1547352935.6,286047000.7,N
1547352955.4,286047000.9,N
1547352975.3,286047000.8,N
1547352995.1,286047000.6,N
1547352996.0,286047000.6,N
1547353015.8,286047000.1,N
1547353035.7,286047001.5,N
1547353055.5,286047004.2,Y
1547353075.3,286047002.5,P
1547353095.2,286046998.4,N
1547353115.0,286046998.9,N
1547353115.9,286046998.9,N
1547353135.8,286046999.1,N
1547353155.6,286047002.2,N
1547353175.4,286047002.8,N
1547353195.3,286047000.4,N
1547353215.1,286047000.3,N
1547353235.9,286046998.6,N
1547353255.7,286046999.4,N
1547353275.5,286046998.8,N
1547353295.4,286046999.7,N
1547353315.2,286047000.8,N
1547353335.1,286047001.0,N
1547353336.0,286047001.0,N
1547353355.8,286047000.9,N
1547353375.6,286047000.6,N
1547353395.5,286047000.9,N
1547353415.3,286047000.0,N
1547353435.2,286047000.5,N
1547353455.9,286047000.8,N
1547353475.7,286046999.3,N
1547353495.6,286047000.7,N
1547353515.4,286046998.8,N
1547353535.2,286046999.1,N
1547353555.1,286046998.5,N
1547353556.0,286046998.5,N
1547353575.8,286046998.6,N
1547353595.7,286047000.7,N
1547353615.5,286047000.7,N
1547353635.3,286046998.5,N
1547353655.2,286046998.6,N
1547353675.0,286047001.1,N
1547353675.9,286047001.1,N
1547353695.8,286047000.7,N
1547353715.6,286047002.3,N
1547353735.2,286046999.8,N
1547353755.0,286046999.9,N
1547353755.9,286046999.9,N
1547353775.8,286047000.2,N
1547353795.6,286047000.3,N
1547353815.5,286047000.8,N
1547353835.3,286047000.1,N
1547353855.1,286047002.1,N
1547353875.9,286047002.3,N
1547353895.7,286047000.6,N
1547353915.5,286047002.8,N
1547353935.4,286046999.7,N
1547353955.2,286047000.2,N
1547353975.1,286046999.9,N
1547353976.0,286046999.9,N
1547353995.8,286047000.2,N
1547354015.6,286047001.1,N
1547354035.5,286046998.2,N
1547354055.3,286046998.4,N
1547354075.1,286046998.5,N
1547354095.9,286046998.1,N
1547354115.7,286047000.3,N
1547354135.3,286047001.0,N
1547354155.1,286046998.3,N
1547354175.9,286046998.1,N
1547354195.7,286047000.7,N
1547354215.5,286046998.2,N
1547354235.4,286047000.2,N
1547354255.2,286047002.7,N
1547354275.1,286047002.1,N
1547354276.0,286047002.1,N
1547354295.8,286047001.8,N
1547354315.6,286046999.7,N
1547354335.5,286047000.6,N
1547354355.3,286047000.1,N
1547354375.1,286047000.0,N
1547354395.9,286047000.0,N
1547354415.7,286047000.4,N
1547354435.6,286046998.1,N
1547354455.4,286047000.5,N
1547354475.2,286047000.7,N
1547354495.5,286046998.7,N
1547354515.3,286047002.8,N
1547354535.1,286047001.8,N
1547354555.9,286047002.6,N
1547354575.7,286047000.5,N
1547354595.6,286047000.2,N
1547354615.4,286047002.0,N
1547354635.2,286047000.2,N
1547354655.1,286047002.0,N
1547354656.0,286047002.0,N
1547354675.8,286047002.5,N
1547354695.6,286047000.9,N
1547354715.5,286047000.2,N
1547354735.3,286047001.4,N
1547354755.2,286047002.7,N
1547354775.9,286046999.7,N
1547354795.7,286047001.0,N
1547354815.6,286046999.7,N
1547354835.4,286046999.7,N
1547354855.2,286046999.9,N
1547354875.1,286047002.7,N
1547354876.0,286047002.7,N
1547354895.8,286047001.5,N
1547354915.7,286047004.3,Y
1547354935.5,286047001.8,P
1547354955.3,286047002.7,P
1547354975.2,286047000.3,N
1547354995.0,286047000.4,N
1547354995.9,286047000.4,N
1547355015.8,286047002.8,Y
1547355035.6,286047000.7,P
1547355055.4,286047000.9,P
1547355075.3,286046999.8,N
1547355095.1,286047000.0,N
1547355115.8,286047001.5,N
1547355135.7,286047002.2,Y
1547355155.5,286047000.4,P
1547355175.4,286046998.9,P
1547355195.2,286046998.7,N
1547355215.0,286046998.7,N
1547355215.9,286046998.7,N
1547355235.8,286046998.7,N
1547355255.6,286046997.0,Y
1547355275.5,286047001.2,P
1547355295.3,286047000.0,N
1547355315.1,286047000.4,N
1547355335.9,286047000.5,N
1547355355.7,286046999.3,N
1547355375.6,286046996.5,Y
1547355395.4,286046999.1,P
1547355415.2,286046998.3,P
1547355435.1,286046998.9,N
1547355436.0,286046998.9,N
1547355455.8,286046998.6,N
1547355475.6,286046998.2,Y
1547355495.5,286047002.6,P
1547355515.3,286047001.5,N
1547355535.2,286047001.6,N
1547355555.9,286047002.1,N
1547355575.7,286047002.8,N
1547355595.6,286046999.9,N
